sat.trackr.live / text

‹ back to catalog

GSAT0220 (GALILEO 24)

NORAD 43567 · 2018-060D

PAYLOAD ACTIVE UNKNOWN

§ Identity

Operator
Country
ESA
Launch date
2018-07-25
Launch site
FRGUI
Launch vehicle
Mass (kg)
RCS (m²)

Purposes: earth_obs, nav

External: N2YO · Heavens-Above · Gunter

§ Orbital elements

Epoch: 2026-05-23T12:04:55.070688Z

Period
844.70 min
Inclination
57.1794°
Eccentricity
0.0002695
Mean motion
1.70475670 rev/d
Perigee alt
23,214.0 km
Apogee alt
23,230.0 km
Semi-major
29,600.1 km
B*
0.0000e+0
RAAN
342.4508°
Arg perigee
325.3655°
Mean anomaly
34.6368°
Rev number
4,875

§ Raw data

GSAT0220 (GALILEO 24)1 43567U 18060D   26143.50341517 -.00000088  00000+0  00000+0 0  99972 43567  57.1794 342.4508 0002695 325.3655  34.6368  1.70475670 48758

JSON: /api/v1/satellites/43567 · /tle

For live sub-satellite position, see the globe view (requires WebGL).

§ Visibility from observer

Set your observer location to see the next 7 days of passes ≥ 10°. The values pass through the URL so the page stays shareable.

No JS? Fill the form by hand. The geolocation button needs JavaScript.